Location: Powder Track
(41.8531°N, 72.3584°W)
Time: 16:43:23
(UTC+00:00)

Transit 4A - Visible Passes

Search period start: 28 July 2021 00:00
Search period end: 07 August 2021 00:00
Orbit: 872 x 972 km, 66.8° (Epoch: 28 July)

Date Brightness Start Highest point End Pass type
(mag) Time Alt. Az. Time Alt. Az. Time Alt. Az.
28 Jul 8.6 04:56:58 39° E 04:56:58 39° E 05:01:25 10° NE visible
28 Jul 8.9 06:40:28 27° W 06:42:22 34° NW 06:47:38 10° NNE visible
29 Jul 8.0 05:05:53 58° ENE 05:05:53 58° ENE 05:10:55 10° NE visible
29 Jul 9.4 06:49:23 19° W 06:51:55 24° NW 06:56:38 10° N visible
30 Jul 10.0 03:31:16 11° ENE 03:31:16 11° ENE 03:31:39 10° ENE visible
30 Jul 7.8 05:14:45 80° NNE 05:14:45 80° NNE 05:20:16 10° NNE visible
30 Jul 9.8 06:58:14 12° WNW 07:01:34 18° NW 07:05:30 10° N visible
31 Jul 9.6 03:40:06 17° ENE 03:40:06 17° ENE 03:42:11 10° ENE visible
31 Jul 8.0 05:23:35 60° WNW 05:23:44 60° WNW 05:29:31 10° NNE visible
31 Jul 10.1 07:08:29 10° WNW 07:11:19 14° NW 07:14:08 10° N visible
01 Aug 9.1 03:48:53 26° ENE 03:48:53 26° ENE 03:52:04 10° NE visible
01 Aug 8.6 05:32:22 40° WNW 05:33:08 42° NW 05:38:40 10° NNE visible
01 Aug 10.4 07:20:36 10° NW 07:21:09 10° NNW 07:21:42 10° NNW visible
02 Aug 8.6 03:57:37 39° ENE 03:57:37 39° ENE 04:01:42 10° NE visible
02 Aug 9.2 05:41:07 26° WNW 05:42:39 30° NW 05:47:43 10° NNE visible
03 Aug 8.0 04:06:18 60° ENE 04:06:18 60° ENE 04:11:08 10° NNE visible
03 Aug 9.7 05:49:47 17° WNW 05:52:14 22° NW 05:56:41 10° N visible
04 Aug 9.8 02:31:27 13° ENE 02:31:27 13° ENE 02:32:24 10° ENE visible
04 Aug 7.8 04:14:56 74° NNW 04:14:56 74° NNW 04:20:27 10° NNE visible
04 Aug 10.1 05:58:24 10° WNW 06:01:54 16° NW 06:05:30 10° N visible
05 Aug 9.3 02:40:01 21° ENE 02:40:01 21° ENE 02:42:37 10° NE visible
05 Aug 8.3 04:23:29 51° WNW 04:23:57 53° NW 04:29:40 10° NNE visible
05 Aug 10.3 06:09:24 10° NW 06:11:41 12° NNW 06:13:59 10° N visible
06 Aug 8.7 02:48:28 33° E 02:48:28 33° E 02:52:24 10° NE visible
06 Aug 9.0 04:31:55 32° W 04:33:23 37° NW 04:38:47 10° NNE visible
